Location: Kuala Lumpur International
(3.1298°N, 101.5524°E)
Time: 10:05:34
(UTC+00:00)

Meteor 1-21 Rocket - Pass Details

Date: 05 August 2024
Orbit: 833 x 906 km, 81.2° (Epoch: 18 September)

Event Time Altitude Azimuth Distance (km) Brightness Sun altitude
Rises 22:42:43 0° 355° (N) 3,506 7.6 -7.9°
Reaches altitude 10° 22:45:09 10° 355° (N) 2,572 6.9 -7.4°
Maximum altitude 22:51:03 90° 43° (NE) 909 4.4 -6.0°
Drops below altitude 10° 22:56:58 10° 175° (S) 2,582 6.6 -4.5°
Sets 22:59:25 0° 175° (S) 3,520 7.3 -4.0°
